www.pogodaiklimat.ru

Погода и климат >> Архив погоды >> Австралия >> Новый Южный Уэльс >> Тибообера


ПОГОДА в Тибообере

  • Прогноз погоды в Тибообере
  • Монитор погоды в Тибообере

АРХИВ ПОГОДЫ в Тибообере

Время (UTC), дата Ветер
(напр.,м/с)
 
Видим.   Явления Облачность Т
(С)
Тd
(С)
f
(%)
Тe
(С)
Тes
(С)
Комфортность P
(гПа)
Po
(гПа)
Тmin
(С)
Tmax
(С)
R
(мм)
R24
(мм)
S
(см)
01 20.05 С 5 н/о н/о +24.6 +6.8 32 +25 +25 комфорт 1024.4 1003.3
02 20.05 С 5 н/о н/о +26.0 +7.1 30 +26 +26 жарко 1023.6 1002.6 +15.6
03 20.05 С 3 н/о н/о +27.1 +7.5 29 +27 +27 жарко 1022.6 1001.6
04 20.05 СЗ 3 н/о н/о +27.1 +7.0 28 +27 +27 жарко 1021.9 1000.9
05 20.05 СЗ 2 н/о н/о +27.4 +6.8 27 +27 +27 жарко 1021.6 1000.6
06 20.05 З 2 н/о н/о +27.7 +7.0 27 +27 +27 жарко 1021.4 1000.4
07 20.05 С 3 н/о н/о +26.7 +6.7 28 +26 +26 жарко 1021.4 1000.4
08 20.05 С 3 н/о н/о +24.2 +7.4 34 +24 +24 комфорт 1021.9 1000.9
09 20.05 С 3 н/о н/о +23.1 +7.6 37 +24 +24 комфорт 1022.4 1001.4
10 20.05 СВ 3 н/о н/о +22.3 +7.7 39 +23 +23 комфорт 1022.9 1001.9
11 20.05 С 4 н/о н/о +21.4 +7.3 40 +22 +22 комфорт 1023.6 1002.6
12 20.05 С 4 н/о н/о +21.1 +7.0 40 +22 +22 комфорт 1023.8 1002.7
13 20.05 С 4 н/о н/о +19.8 +6.9 43 +21 +21 комфорт 1023.5 1002.5
14 20.05 С 4 н/о н/о +19.1 +6.6 44 +20 +20 1023.3 1002.3 +28.3
15 20.05 С 4 н/о н/о +19.2 +6.7 44 +20 +20 1023.1 1002.1
16 20.05 С 4 н/о н/о +19.1 +6.9 45 +20 +20 1022.9 1001.9
17 20.05 С 3 н/о н/о +17.1 +6.0 48 +17 +17 1023.1 1002.1
18 20.05 С 4 н/о н/о +18.0 +7.1 49 +18 +18 1022.8 1001.8
19 20.05 С 4 н/о н/о +17.7 +6.9 49 +17 +17 1022.9 1001.9
20 20.05 С 4 н/о н/о +17.5 +6.7 49 +17 +17 1023.3 1002.3
21 20.05 С 4 н/о н/о +17.7 +6.3 47 +17 +17 1024.1 1003.0
22 20.05 С 3 н/о н/о +18.4 +6.6 46 +19 +19 1024.8 1003.7
23 20.05 С 3 н/о н/о +20.7 +6.6 40 +22 +22 комфорт 1025.1 1004.0
00 21.05 С 4 н/о н/о +22.8 +6.6 35 +23 +23 комфорт 1025.3 1004.2
01 21.05 С 5 н/о н/о +25.1 +6.8 31 +25 +25 комфорт 1025.1 1004.0
02 21.05 С 4 н/о н/о +26.7 +6.2 27 +26 +26 жарко 1024.5 1003.4 +14.9
03 21.05 В 2 н/о н/о +27.5 +6.3 26 +27 +27 жарко 1023.9 1002.8
04 21.05 С 2 н/о н/о +27.5 +5.7 25 +27 +27 жарко 1022.9 1001.9
05 21.05 В 2 н/о н/о +27.2 +5.5 25 +26 +26 жарко 1022.6 1001.6
06 21.05 СВ 3 н/о н/о +27.4 +5.6 25 +26 +26 жарко 1022.7 1001.7
07 21.05 В 3 н/о н/о +26.8 +6.2 27 +26 +26 жарко 1023.0 1002.0
08 21.05 СВ 3 н/о н/о +24.0 +6.7 33 +24 +24 комфорт 1023.5 1002.5
09 21.05 СВ 3 н/о н/о +22.0 +7.0 38 +23 +23 комфорт 1024.1 1003.0
10 21.05 В 3 н/о н/о +20.8 +7.1 41 +22 +22 комфорт 1024.7 1003.6
11 21.05 СВ 3 н/о н/о +20.6 +7.6 43 +22 +22 комфорт 1025.2 1004.1
12 21.05 С 3 н/о н/о +21.2 +8.1 43 +22 +22 комфорт 1025.4 1004.3
13 21.05 С 3 н/о н/о +20.7 +8.0 44 +22 +22 комфорт 1025.4 1004.3
14 21.05 СВ 3 н/о н/о +19.8 +7.9 46 +21 +21 комфорт 1025.6 1004.5 +28.4
15 21.05 С 3 н/о н/о +18.4 +7.8 50 +19 +19 1025.3 1004.2
16 21.05 С 4 н/о н/о +18.7 +8.1 50 +19 +19 1025.4 1004.3
17 21.05 С 4 н/о н/о +18.8 +7.9 49 +19 +19 1025.4 1004.3
18 21.05 С 3 н/о н/о +17.7 +8.0 53 +18 +18 1025.3 1004.2
19 21.05 С 3 н/о н/о +17.1 +8.0 55 +17 +17 1025.5 1004.4
20 21.05 С 2 н/о н/о +16.3 +7.5 56 +16 +16 1026.1 1005.0
21 21.05 ЮЗ 2 н/о н/о +13.8 +6.7 62 +14 +14 1026.8 1005.7
22 21.05 штиль 0 н/о н/о +16.1 +8.3 60 +16 +16 1027.4 1006.3
23 21.05 СВ 2 н/о н/о +20.5 +9.4 49 +23 +23 комфорт 1027.9 1006.8
00 22.05 В 1 н/о н/о +23.0 +9.8 43 +25 +25 комфорт 1028.2 1007.1
01 22.05 В 3 н/о н/о +24.1 +9.7 40 +25 +25 комфорт 1027.8 1006.7
02 22.05 СВ 3 н/о н/о +24.3 +9.1 38 +25 +25 комфорт 1027.2 1006.1 +13.8
03 22.05 В 2 н/о н/о +25.4 +8.4 34 +26 +26 жарко 1026.2 1005.1
04 22.05 В 4 н/о н/о +26.6 +7.6 30 +26 +26 жарко 1025.5 1004.4
05 22.05 В 5 н/о н/о +26.6 +6.6 28 +26 +26 жарко 1025.2 1004.1
06 22.05 ЮВ 5 н/о н/о +26.9 +6.3 27 +26 +26 жарко 1025.3 1004.2
07 22.05 В 4 н/о н/о +25.6 +7.2 31 +26 +26 жарко 1025.3 1004.2
08 22.05 В 4 н/о н/о +23.8 +7.0 34 +24 +24 комфорт 1025.6 1004.5
09 22.05 ЮВ 3 н/о н/о +22.5 +7.5 38 +23 +23 комфорт 1026.1 1005.0
10 22.05 ЮВ 2 н/о н/о +21.5 +7.3 40 +22 +22 комфорт 1026.5 1005.4
11 22.05 штиль 0 н/о н/о +21.2 +7.8 42 +22 +22 комфорт 1026.6 1005.5
12 22.05 ЮВ 2 н/о н/о +21.0 +7.6 42 +23 +23 комфорт 1026.7 1005.6
13 22.05 Ю 3 н/о н/о +19.1 +7.2 46 +20 +20 1026.6 1005.5
14 22.05 В 4 н/о н/о +18.0 +7.1 49 +18 +18 1026.5 1005.4 +27.5
15 22.05 В 3 н/о н/о +17.8 +7.0 49 +18 +18 1026.1 1005.0
16 22.05 ЮВ 2 н/о н/о +16.9 +7.0 52 +17 +17 1026.1 1005.0
17 22.05 штиль 0 н/о н/о +17.5 +7.5 52 +18 +18 1025.9 1004.8
18 22.05 СВ 3 н/о н/о +17.2 +7.8 54 +17 +17 1025.6 1004.5
19 22.05 штиль 0 н/о н/о +14.9 +6.7 58 +15 +15 1025.4 1004.3
20 22.05 Ю 2 н/о н/о +14.8 +7.6 62 +15 +15 1025.5 1004.4
21 22.05 штиль 0 н/о н/о +16.0 +8.0 59 +16 +16 1026.4 1005.3
22 22.05 СВ 3 н/о н/о +17.3 +8.7 57 +17 +17 1027.2 1006.1
23 22.05 СВ 3 н/о н/о +19.4 +8.1 48 +21 +21 комфорт 1027.6 1006.5
00 23.05 СВ 4 н/о н/о +21.1 +8.4 44 +22 +22 комфорт 1028.0 1006.9
01 23.05 С 4 н/о н/о +23.6 +8.1 37 +24 +24 комфорт 1027.5 1006.4
02 23.05 СВ 4 н/о н/о +24.9 +6.6 31 +25 +25 комфорт 1026.8 1005.7 +14.3
03 23.05 СВ 3 н/о н/о +25.8 +6.4 29 +25 +25 комфорт 1025.7 1004.6
04 23.05 СВ 2 н/о н/о +25.8 +6.4 29 +25 +25 комфорт 1024.7 1003.6
05 23.05 ЮВ 2 н/о н/о +26.0 +6.1 28 +26 +26 жарко 1024.0 1002.9
06 23.05 ЮВ 3 н/о н/о +25.7 +5.8 28 +25 +25 комфорт 1023.8 1002.7
07 23.05 ЮВ 3 н/о н/о +25.3 +5.5 28 +25 +25 комфорт 1023.6 1002.6
08 23.05 В 3 н/о н/о +22.9 +5.8 33 +23 +23 комфорт 1023.8 1002.7
09 23.05 ЮВ 4 н/о н/о +21.5 +5.8 36 +22 +22 комфорт 1024.1 1003.0
10 23.05 В 3 н/о н/о +20.6 +6.2 39 +22 +22 комфорт 1024.7 1003.6
11 23.05 В 2 н/о н/о +20.3 +6.3 40 +22 +22 комфорт 1025.0 1003.9
12 23.05 штиль 0 н/о н/о +18.3 +6.5 46 +18 +18 1024.9 1003.8
13 23.05 Ю 2 н/о н/о +17.6 +6.5 48 +18 +18 1024.8 1003.7
14 23.05 ЮВ 2 н/о н/о +17.7 +6.6 48 +18 +18 1024.5 1003.4 +26.4
15 23.05 штиль 0 н/о н/о +19.0 +6.8 45 +19 +19 1024.1 1003.0
16 23.05 В 3 н/о н/о +18.3 +6.5 46 +19 +19 1023.4 1002.4
17 23.05 СВ 2 н/о н/о +16.6 +6.7 52 +17 +17 1023.0 1002.0
18 23.05 СВ 2 н/о н/о +16.7 +7.1 53 +17 +17 1022.8 1001.8
19 23.05 ЮЗ 2 н/о н/о +13.8 +5.9 59 +14 +14 1022.8 1001.8
20 23.05 СВ 2 н/о н/о +16.1 +7.1 55 +17 +17 1023.0 1002.0
21 23.05 С 4 н/о н/о +16.3 +7.3 55 +16 +16 1023.4 1002.4
22 23.05 штиль 0 н/о н/о +14.9 +6.7 58 +15 +15 1023.8 1002.7
23 23.05 штиль 0 н/о н/о +18.0 +7.4 50 +18 +18 1024.0 1002.9
00 24.05 СВ 3 н/о н/о +20.7 +7.3 42 +22 +22 комфорт 1024.0 1002.9
01 24.05 СВ 3 н/о н/о +23.0 +6.3 34 +24 +24 комфорт 1023.8 1002.7
02 24.05 С 4 н/о н/о +24.2 +6.5 32 +24 +24 комфорт 1023.0 1002.0 +13.8
03 24.05 С 5 н/о н/о +25.2 +5.4 28 +25 +25 комфорт 1022.0 1001.0
04 24.05 С 3 н/о н/о +25.8 +5.4 27 +25 +25 комфорт 1021.1 1000.1
05 24.05 СВ 2 н/о н/о +25.7 +3.6 24 +25 +25 комфорт 1020.6 999.6
06 24.05 С 3 н/о н/о +25.2 +3.8 25 +24 +24 комфорт 1020.4 999.4
07 24.05 штиль 0 н/о н/о +24.2 +3.5 26 +24 +24 комфорт 1020.4 999.4
08 24.05 штиль 0 н/о н/о +22.2 +3.8 30 +22 +22 комфорт 1020.5 999.5
09 24.05 СВ 3 н/о н/о +20.5 +3.7 33 +21 +21 комфорт 1020.9 999.9
10 24.05 С 3 н/о н/о +20.1 +4.2 35 +21 +21 комфорт 1021.2 1000.2
11 24.05 С 4 н/о н/о +19.8 +4.3 36 +20 +20 1021.4 1000.4
12 24.05 С 3 н/о н/о +19.6 +4.9 38 +20 +20 1021.4 1000.4
13 24.05 С 3 н/о н/о +19.3 +5.0 39 +20 +20 1021.3 1000.3
14 24.05 С 4 н/о н/о +18.6 +4.8 40 +19 +19 1021.1 1000.1 +26.4
15 24.05 штиль 0 н/о н/о +16.1 +4.5 46 +16 +16 1020.6 999.6
16 24.05 штиль 0 н/о н/о +15.3 +5.0 50 +15 +15 1020.4 999.4
17 24.05 штиль 0 н/о н/о +15.6 +5.2 50 +16 +16 1019.7 998.7
18 24.05 штиль 0 н/о н/о +15.0 +5.0 51 +15 +15 1019.3 998.3
19 24.05 С 1 н/о н/о +15.4 +5.3 51 +16 +16 1019.1 998.1
20 24.05 С 3 н/о н/о +15.8 +4.8 48 +15 +15 1019.2 998.2
21 24.05 С 4 н/о н/о +15.5 +4.8 49 +15 +15 1019.5 998.5
22 24.05 С 4 н/о н/о +16.0 +5.0 48 +15 +15 1019.9 998.9
23 24.05 С 4 н/о н/о +18.5 +5.0 41 +19 +19 1020.1 999.1
00 25.05 С 5 н/о н/о +20.8 +5.6 37 +22 +22 комфорт 1020.2 999.2
01 25.05 С 5 н/о н/о +23.8 +5.7 31 +24 +24 комфорт 1019.6 998.6
02 25.05 С 5 н/о н/о +25.7 +4.2 25 +25 +25 комфорт 1018.7 997.8 +14.8
03 25.05 СЗ 5 н/о н/о +26.4 +3.0 22 +25 +25 комфорт 1017.7 996.8
04 25.05 СЗ 6 н/о н/о +26.9 +2.7 21 +25 +25 комфорт 1016.7 995.8
05 25.05 З 6 н/о н/о +26.8 +1.3 19 +25 +25 комфорт 1016.3 995.4
06 25.05 З 6 н/о н/о +26.2 +1.5 20 +25 +25 комфорт 1016.2 995.3
07 25.05 З 6 н/о н/о +25.3 +1.4 21 +24 +24 комфорт 1016.3 995.4
08 25.05 З 4 н/о н/о +24.2 +2.4 24 +23 +23 комфорт 1016.7 995.8
09 25.05 СЗ 3 н/о н/о +22.8 +2.8 27 +22 +22 комфорт 1017.0 996.1
10 25.05 З 5 н/о н/о +22.3 +2.9 28 +22 +22 комфорт 1017.6 996.7
11 25.05 З 4 н/о н/о +20.3 +3.1 32 +21 +21 комфорт 1018.0 997.1
12 25.05 З 4 н/о н/о +19.8 +3.5 34 +20 +20 1018.0 997.1
13 25.05 З 4 н/о н/о +20.1 +3.3 33 +21 +21 комфорт 1017.7 996.8
14 25.05 З 8 н/о н/о +20.1 +3.3 33 +20 +20 1017.8 996.9 +27.4
15 25.05 ЮЗ 7 н/о н/о +17.8 +2.5 36 +17 +17 1018.1 997.2
16 25.05 ЮЗ 7 н/о н/о +17.0 +2.6 38 +16 +16 1018.2 997.3
17 25.05 ЮЗ 4 н/о н/о +15.5 +3.0 43 +15 +15 1018.1 997.2
18 25.05 ЮЗ 5 н/о н/о +15.0 +3.5 46 +14 +14 1018.1 997.2
19 25.05 Ю 6 н/о н/о +14.5 +3.9 49 +13 +13 1018.5 997.6
20 25.05 Ю 5 н/о н/о +13.9 +5.3 56 +12 +12 1019.1 998.1
21 25.05 Ю 5 н/о н/о +13.1 +6.2 63 +11 +11 1019.7 998.7
22 25.05 Ю 5 н/о н/о +13.3 +6.2 62 +12 +12 1020.5 999.5
23 25.05 Ю 7 н/о н/о +14.8 +5.3 53 +13 +13 1021.1 1000.1
00 26.05 Ю 7 н/о н/о +16.4 +4.1 44 +15 +15 1021.4 1000.4
01 26.05 Ю 6 н/о н/о +17.5 +3.8 40 +17 +17 1021.1 1000.1
02 26.05 Ю 5 н/о н/о +18.0 +2.7 36 +18 +18 1020.2 999.2 +12.9
03 26.05 Ю 5 н/о н/о +19.2 +3.4 35 +19 +19 1019.4 998.4
04 26.05 Ю 4 н/о н/о +19.5 +3.2 34 +20 +20 1018.5 997.6
05 26.05 ЮЗ 4 н/о н/о +19.6 +2.9 33 +20 +20 1018.1 997.2
06 26.05 Ю 4 н/о н/о +19.7 +3.0 33 +20 +20 1018.0 997.1
07 26.05 ЮЗ 4 н/о н/о +19.2 +2.6 33 +19 +19 1018.2 997.3
08 26.05 ЮЗ 3 н/о н/о +17.2 +1.2 34 +17 +17 1018.7 997.8
09 26.05 ЮЗ 3 н/о н/о +15.6 +0.6 36 +15 +15 1019.4 998.4
10 26.05 З 4 н/о н/о +14.6 +0.8 39 +14 +14 1019.9 998.9
11 26.05 З 3 н/о н/о +13.5 +0.9 42 +13 +13 1020.3 999.3
12 26.05 З 4 н/о н/о +12.4 +1.1 46 +11 +11 1020.2 999.2
13 26.05 З 4 н/о н/о +11.9 +1.5 49 +10 +10 1020.0 999.0
14 26.05 З 4 н/о н/о +10.9 +1.7 53 +9 +9 1019.6 998.6 +20.4
15 26.05 ЮЗ 3 н/о н/о +10.1 +1.7 56 +9 +9 1019.3 998.3
16 26.05 З 4 н/о н/о +9.8 +2.2 59 +8 +8 1019.2 998.2
17 26.05 З 4 н/о н/о +10.3 +2.4 58 +8 +8 1018.9 997.9
18 26.05 З 4 н/о н/о +10.0 +2.6 60 +8 +8 1019.3 998.3
19 26.05 З 2 н/о н/о +8.9 +2.7 65 +7 +7 1019.5 998.5
20 26.05 З 4 н/о н/о +8.9 +3.1 67 +6 +6 1019.6 998.6
21 26.05 З 4 н/о н/о +9.0 +3.2 67 +6 +6 1020.3 999.3
22 26.05 З 4 н/о н/о +10.1 +3.2 62 +8 +8 1021.1 1000.1
23 26.05 ЮЗ 6 н/о н/о +13.2 +4.1 54 +11 +11 1021.8 1000.8
00 27.05 ЮЗ 7 н/о н/о +15.4 +5.0 50 +14 +14 1022.1 1001.1
01 27.05 ЮЗ 8 н/о н/о +16.3 +4.7 46 +15 +15 1022.1 1001.1

 

Местоположение метеостанции Тибообера (Новый Южный Уэльс, Австралия): широта -29.45 долгота 142.05 высота над уровнем моря 177 м.

В архиве по умолчанию представлена погода в Тибообере за последнюю неделю. Архивные данные за месяц целиком и за предыдущие месяцы, начиная с января 2011 года, Вы можете получить, выбрав интересующий диапазон дат из раскрывающегося списка и нажав кнопку "Ввод!".


*Определитесь, кто Вы:
робот инопланетянин человек

Внимание! Время в таблицах - всемирное. Для получения местного времени необходимо прибавить поправку, которая равна 10 ч.

Смотрите также архив погоды в соседних городах и на ближайших метеорологических станциях:

Погода в Уафт Клифс (Новый Южный Уэльс, Австралия) (184 км)
Погода в Фоулерс Гэп (Новый Южный Уэльс, Австралия) (184 км)
Погода в Месторождении Ballera (Квинсленд, Австралия) (227 км)
Погода в Мумбе (Южная Австралия, Австралия) (235 км)
Погода в Таргоминде (Квинсленд, Австралия) (237 км)
Погода в Уилкании (Новый Южный Уэльс, Австралия) (263 км)
Погода в Брокен-Хилл аэропорту (Новый Южный Уэльс, Австралия) (289 км)
Погода в Ли-Крике (Южная Австралия, Австралия) (372 км)
Погода в Бурке (Новый Южный Уэльс, Австралия) (382 км)
Погода в Марри (Южная Австралия, Австралия) (387 км)

Пояснения к столбцам:

Ветер - указаны скорость ветра в м/с - средняя за 10 мин, порывы в срок и между сроками (в фигурных скобках) и направление, откуда дует ветер: С - северный, СВ - северо-восточный, В - восточный, ЮВ - юго-восточный, Ю - южный, ЮЗ - юго-западный, З - западный, СЗ - северо-западный.
Видимость - горизонтальная дальность видимости в метрах или километрах. При видимости от 1 до 10 км при отсутствии осадков обычно наблюдается дымка, при ухудшении видимости до 1 км и менее - туман. В сухую погоду видимость может ухудшаться дымом, пылью или мглою.
Явления - указаны атмосферные явления, наблюдавшиеся в срок или в последний час перед сроком; фигурными скобками обозначены явления, наблюдавшиеся между сроками (за 1-3 часа до срока); квадратными скобками обозначены град или гололедные отложения с указанием их диаметра в мм.
Облачность - указаны через наклонную черту общая и нижняя облачность в баллах и высота нижней границы облаков в метрах; квадратными скобками обозначены формы облаков: Ci - перистые, Cs - перисто-слоистые, Cc - перисто-кучевые, Ac - высококучевые, As - высокослоистые, Sc - слоисто-кучевые, Ns - слоисто-дождевые, Cu - кучевые, Cb - кучево-дождевые. Подробнее классификацию облаков см. в Атласе облаков (PDF).
T - Температура воздуха - температура, измеренная на высоте 2 м над землей.
Td - Температура точки росы - температура, при понижении до которой содержащийся в воздухе водяной пар достигнет насыщения.
f - Относительная влажность воздуха - влажноcть воздуха, измеренная на высоте 2 м над землей.
Te - Эффективная температура - температура, которую ощущает одетый по сезону человек в тени. Характеристика душности погоды. При расчете учитывается влияние влажности воздуха и скорости ветра на теплоощущения человека.
Tes - Эффективная температура на солнце - температура, которую ощущает человек, с поправкой на солнечный нагрев. Характеристика знойности погоды. Зависит от высоты солнца над горизонтом, облачности и скорости ветра. Ночью, в пасмурную погоду, а также при ветре 12 м/с и более поправка равна нулю.
P - Атмосферное давление - приведенное к уровню моря атмосферное давление.
Po - Атмосферное давление - измеренное на уровне метеостанции атмосферное давление.
Tmin - Минимальная температура - минимум температуры воздуха на высоте 2 м над землей.
Tmax - Максимальная температура - максимум температуры воздуха на высоте 2 м над землей.
R - Количество осадков - Количество выпавших осадков за период времени, мм. При наведении курсора мыши на число - период времени, за который выпало указанное количество осадков.
R24 - Количество осадков - Количество выпавших осадков за 24 часа, мм.
S - Снежный покров - Высота снежного покрова, см. При наведении курсора мыши на число - состояние снежного покрова и степень покрытия местности в баллах.